Weather History for Greybull, WY

Change the Weather History Date:

Saturday, July 5, 2014

  Actual Average Record
Temperature  
Mean Temperature 79 °F 72 °F  
Max Temperature 101 °F 88 °F 102 °F (2001)
Min Temperature 57 °F 56 °F 48 °F (2000)
Degree Days  
Heating Degree Days 0 0  
Month to date heating degree days 0 1  
Since 1 June heating degree days 56 71  
Since 1 July heating degree days 0 1  
Cooling Degree Days 14 7  
Month to date cooling degree days 43 35  
Year to date cooling degree days 134 161  
Since 1 June cooling degree days 92 141  
Growing Degree Days 30 (Base 50)    
Moisture  
Dew Point 41 °F    
Average Humidity 34    
Maximum Humidity 60    
Minimum Humidity 7    
Precipitation  
Precipitation 0.00 in 0.03 in 0.06 in (2006)
Month to date precipitation T 0.15  
Year to date precipitation 2.64 4.52  
Sea Level Pressure  
Sea Level Pressure 29.89 in    
Wind  
Wind Speed 7 mph (SSW)    
Max Wind Speed 23 mph    
Max Gust Speed 29 mph    
Visibility 10 miles    
Events      
T = Trace of Precipitation, MM = Missing Value Source: NWS Daily Summary

Daily Weather History Graph

Daily Weather History Graph

Search for Another Location

Airport:

Trip Planner

Search our weather history database for the weather conditions in past years. The results will help you decide how hot, cold, wet, or windy it might be!

Date:

Astronomy

Jul. 05, 2014 Rise Set
Actual Time 5:33 AM MDT 8:59 PM MDT
Civil Twilight 4:57 AM MDT 9:36 PM MDT
Nautical Twilight 4:09 AM MDT 10:23 PM MDT
Astronomical Twilight 3:08 AM MDT 11:23 PM MDT
Moon 1:51 PM MDT (7/5) 12:35 AM MDT (7/5)
Length of Visible Light 16h 38m
Length of Day
15h 25m
First Quarter, 53% of the Moon is Illuminated
Jul 5
First Quarter
Jul 12
Full
Jul 18
Last Quarter
Jul 26
New
Aug 3
First Quarter

Hourly Weather History & Observations

Time (MDT) Temp. Dew Point Humidity Pressure Visibility Wind Dir Wind Speed Gust Speed Precip Events Conditions
12:53 AM 68.0 °F 46.9 °F 47% 29.90 in 10.0 mi WSW 8.1 mph - N/A   Clear
1:53 AM 66.9 °F 46.0 °F 47% 29.88 in 10.0 mi South 4.6 mph - N/A   Clear
2:53 AM 64.9 °F 45.0 °F 48% 29.89 in 10.0 mi ESE 5.8 mph - N/A   Clear
3:53 AM 62.1 °F 46.0 °F 56% 29.90 in 10.0 mi South 3.5 mph - N/A   Clear
4:53 AM 61.0 °F 46.0 °F 58% 29.92 in 10.0 mi SSE 3.5 mph - N/A   Clear
5:53 AM 60.1 °F 46.0 °F 60% 29.94 in 10.0 mi ESE 3.5 mph - N/A   Clear
6:53 AM 60.1 °F 46.0 °F 60% 29.95 in 10.0 mi Calm Calm - N/A   Clear
7:53 AM 66.0 °F 48.0 °F 52% 29.94 in 10.0 mi SSE 3.5 mph - N/A   Clear
8:53 AM 75.0 °F 46.9 °F 37% 29.94 in 10.0 mi SE 3.5 mph - N/A   Clear
9:53 AM 80.1 °F 45.0 °F 29% 29.93 in 10.0 mi South 6.9 mph - N/A   Clear
10:53 AM 86.0 °F 41.0 °F 20% 29.91 in 10.0 mi SSE 8.1 mph - N/A   Clear
11:53 AM 90.0 °F 44.1 °F 20% 29.89 in 10.0 mi Variable 5.8 mph - N/A   Clear
12:53 PM 93.0 °F 35.1 °F 13% 29.88 in 10.0 mi Calm Calm - N/A   Clear
1:53 PM 96.1 °F 35.1 °F 12% 29.86 in 10.0 mi Variable 4.6 mph - N/A   Clear
2:53 PM 100.0 °F 34.0 °F 10% 29.84 in 10.0 mi NNW 10.4 mph - N/A   Clear
3:53 PM 98.1 °F 36.0 °F 11% 29.84 in 10.0 mi SW 10.4 mph - N/A   Clear
4:53 PM 99.0 °F 32.0 °F 10% 29.84 in 10.0 mi West 11.5 mph 18.4 mph N/A   Clear
5:53 PM 99.0 °F 25.0 °F 7% 29.83 in 10.0 mi NW 15.0 mph 27.6 mph N/A   Clear
6:53 PM 95.0 °F 28.9 °F 10% 29.84 in 10.0 mi NW 16.1 mph - N/A   Clear
7:53 PM 91.9 °F 37.0 °F 15% 29.84 in 10.0 mi NNW 9.2 mph - N/A   Clear
8:53 PM 90.0 °F 43.0 °F 19% 29.85 in 10.0 mi NNW 18.4 mph - N/A   Clear
9:53 PM 86.0 °F 44.1 °F 23% 29.88 in 10.0 mi Calm Calm - N/A   Clear
10:53 PM 82.9 °F 45.0 °F 26% 29.88 in 10.0 mi Calm Calm - N/A   Clear
11:53 PM 77.0 °F 45.0 °F 32% 29.89 in 10.0 mi WNW 5.8 mph - N/A   Clear